Tracking 19219 objects as of 22-Jul-2018
HD Live streaming from Space Station
objects crossing your sky now

FENGYUN 1C DEB

Track FENGYUN 1C DEB now!
10-day predictions


NORAD ID: 31806
Int'l Code: 1999-025CGU
Perigee: 756.4 km
Apogee: 1,300.5 km
Inclination: 97.7 °
Period: 105.6 minutes
Semi major axis: 7399 km
RCS: 0.013 m2 (small)
Launch date: May 10, 1999
Source: People's Republic of China (PRC)
Launch site: Taiyaun Space Center, China (TSC)

Note: This is SATELLITE DEBRIS
aabbcc
Your satellite tracking list
Your tracking list is empty




NASA's NSSDC Master Catalog

Two Line Element Set (TLE):
1 31806U 99025CGU 18183.87817829  .00000616  00000-0  51184-3 0  9999
2 31806  97.6912  50.5955 0367684  65.0858 298.8032 13.63976203554094
Source of the keplerian elements: AFSPC